Location: Ch�risy
(50.2331°N, 2.9131°E)
Time: 22:32:51
(UTC+00:00)

Cosmos 2344 - Pass Details

Date: 17 January 2021
Orbit: 1243 x 2999 km, 63.3° (Epoch: 01 March)

Event Time Altitude Azimuth Distance (km) Brightness Sun altitude
Rises 19:11:52 0° 313° (NW) 4,438 7.1 -27.3°
Reaches altitude 10° 19:14:28 10° 316° (NW) 3,581 6.4 -27.7°
Maximum altitude 19:23:20 72° 42° (NE) 1,849 4.1 -29.1°
Enters shadow 19:26:42 50° 108° (ESE) 2,327 4.4 -29.6°
